Weather History for KFLL - September, 2013

Change the Weather History Date:

Tuesday, September 24, 2013

  Actual Average Record
Temperature  
Mean Temperature 83 °F 83 °F  
Max Temperature 90 °F 89 °F 94 °F (1970)
Min Temperature 76 °F 77 °F 67 °F (1925)
Degree Days  
Heating Degree Days 0 0  
Month to date heating degree days 0 0  
Since 1 July heating degree days 0 0  
Cooling Degree Days 18 18  
Month to date cooling degree days 411 438  
Year to date cooling degree days 3458 3604  
Growing Degree Days 32 (Base 50)    
Moisture  
Dew Point 75 °F    
Average Humidity 78    
Maximum Humidity 94    
Minimum Humidity 61    
Precipitation  
Precipitation 0.01 in 0.30 in 2.24 in (1922)
Month to date precipitation 3.34 7.01  
Year to date precipitation 60.38 48.08  
Snow  
Snow 0.00 in - - ()
Month to date snowfall 0.0  
Since 1 July snowfall 0.0  
Since 1 September snowfall 0.0  
Snow Depth 0.00 in    
Sea Level Pressure  
Sea Level Pressure 29.93 in    
Wind  
Wind Speed 6 mph (SSW)    
Max Wind Speed 20 mph    
Max Gust Speed 28 mph    
Visibility 10 miles    
Events Rain    
T = Trace of Precipitation, MM = Missing Value Source: NWS Daily Summary

Daily Weather History Graph

Daily Weather History Graph

Search for Another Location

Airport or City:

Trip Planner

Search our weather history database for the weather conditions in past years. The results will help you decide how hot, cold, wet, or windy it might be!

Date:

Astronomy

Sep. 24, 2013 Rise Set
Actual Time 7:10 AM EDT 7:14 PM EDT
Civil Twilight 6:47 AM EDT 7:37 PM EDT
Nautical Twilight 6:20 AM EDT 8:04 PM EDT
Astronomical Twilight 5:53 AM EDT 8:31 PM EDT
Moon 11:00 PM EDT (9/24) 11:54 AM EDT (9/24)
Length of Visible Light 12h 50m
Length of Day
12h 04m
Waning Gibbous, 73% of the Moon is Illuminated
Sep 24
Waning Gibbous
Sep 26
Last Quarter
Oct 4
New
Oct 11
First Quarter
Oct 18
Full

Hourly Weather History & Observations

Time (EDT) Temp. Heat Index Dew Point Humidity Pressure Visibility Wind Dir Wind Speed Gust Speed Precip Events Conditions
12:53 AM 80.6 °F 88.1 °F 78.8 °F 94% 29.96 in 10.0 mi SE 4.6 mph - N/A   Scattered Clouds
1:53 AM 81.0 °F 88.6 °F 78.1 °F 91% 29.95 in 9.0 mi South 5.8 mph - N/A Rain Light Rain
2:53 AM 78.1 °F - 75.9 °F 93% 29.96 in 10.0 mi NW 5.8 mph - 0.00 in   Scattered Clouds
3:53 AM 75.9 °F - 73.9 °F 94% 29.95 in 10.0 mi Calm Calm - N/A   Scattered Clouds
4:53 AM 77.0 °F - 75.0 °F 94% 29.94 in 10.0 mi Calm Calm - N/A   Mostly Cloudy
5:43 AM 78.8 °F - 75.2 °F 89% 29.93 in 10.0 mi Calm Calm - N/A   Overcast
5:53 AM 78.1 °F - 75.0 °F 90% 29.94 in 10.0 mi Calm Calm - N/A   Mostly Cloudy
6:53 AM 79.0 °F - 75.9 °F 90% 29.94 in 10.0 mi Calm Calm - N/A   Partly Cloudy
7:53 AM 80.1 °F 86.4 °F 78.1 °F 94% 29.94 in 10.0 mi South 4.6 mph - N/A   Partly Cloudy
8:53 AM 82.9 °F 93.8 °F 79.0 °F 88% 29.96 in 10.0 mi SSW 5.8 mph - N/A   Partly Cloudy
9:53 AM 86.0 °F 96.9 °F 77.0 °F 74% 29.97 in 10.0 mi SSW 9.2 mph - N/A   Scattered Clouds
10:53 AM 88.0 °F 97.5 °F 75.0 °F 65% 29.96 in 10.0 mi SW 11.5 mph 19.6 mph N/A   Scattered Clouds
11:53 AM 90.0 °F 100.2 °F 75.0 °F 61% 29.96 in 10.0 mi SW 10.4 mph 19.6 mph N/A   Scattered Clouds
12:53 PM 88.0 °F 96.5 °F 73.9 °F 63% 29.93 in 10.0 mi SW 9.2 mph 19.6 mph N/A   Mostly Cloudy
1:53 PM 87.1 °F 99.8 °F 78.1 °F 74% 29.91 in 10.0 mi SSE 12.7 mph - N/A   Mostly Cloudy
2:53 PM 88.0 °F 100.2 °F 77.0 °F 70% 29.89 in 10.0 mi South 13.8 mph 19.6 mph N/A   Mostly Cloudy
3:04 PM 89.6 °F 102.2 °F 77.0 °F 66% 29.89 in 10.0 mi South 10.4 mph - N/A   Mostly Cloudy
3:53 PM 88.0 °F 98.5 °F 75.9 °F 67% 29.88 in 10.0 mi South 11.5 mph - N/A   Mostly Cloudy
4:53 PM 84.0 °F 89.0 °F 71.1 °F 65% 29.88 in 10.0 mi SSE 10.4 mph - N/A   Mostly Cloudy
5:29 PM 86.0 °F 91.8 °F 71.6 °F 62% 29.89 in 10.0 mi WSW 13.8 mph 27.6 mph N/A   Scattered Clouds
5:53 PM 84.9 °F 89.4 °F 70.0 °F 61% 29.89 in 10.0 mi WSW 13.8 mph - N/A   Scattered Clouds
6:53 PM 82.9 °F 88.0 °F 72.0 °F 69% 29.90 in 10.0 mi West 16.1 mph 25.3 mph N/A   Mostly Cloudy
7:53 PM 78.1 °F - 75.0 °F 90% 29.90 in 10.0 mi SSW 3.5 mph - N/A   Scattered Clouds
8:53 PM 79.0 °F - 73.9 °F 84% 29.91 in 10.0 mi West 3.5 mph - N/A   Mostly Cloudy
9:53 PM 79.0 °F - 73.0 °F 82% 29.93 in 10.0 mi West 3.5 mph - N/A   Mostly Cloudy
10:53 PM 79.0 °F - 71.1 °F 77% 29.92 in 10.0 mi Calm Calm - N/A   Partly Cloudy
11:53 PM 78.1 °F - 73.0 °F 84% 29.91 in 10.0 mi Calm Calm - N/A   Clear